sat.trackr.live / text

‹ back to catalog

STARLINK-32767

NORAD 62601 · 2025-008Q

PAYLOAD ACTIVE UNKNOWN

§ Identity

Operator
Country
US
Launch date
2025-01-13
Launch site
AFETR
Launch vehicle
Mass (kg)
RCS (m²)

Purposes: comms

External: N2YO · Heavens-Above · Gunter

§ Orbital elements

Epoch: 2026-09-21T07:26:11.332032Z

Period
94.27 min
Inclination
43.0008°
Eccentricity
0.0001557
Mean motion
15.27573005 rev/d
Perigee alt
482.0 km
Apogee alt
484.1 km
Semi-major
6,861.2 km
B*
1.6350e-4
RAAN
253.0176°
Arg perigee
276.4903°
Mean anomaly
83.5771°
Rev number
9,554

§ Raw data

STARLINK-327671 62601U 25008Q   26264.30985338  .00004239  00000+0  16350-3 0  99942 62601  43.0008 253.0176 0001557 276.4903  83.5771 15.27573005 95544

JSON: /api/v1/satellites/62601 · /tle

For live sub-satellite position, see the globe view (requires WebGL).

§ Visibility from observer

Set your observer location to see the next 7 days of passes ≥ 10°. The values pass through the URL so the page stays shareable.

No JS? Fill the form by hand. The geolocation button needs JavaScript.